Regional Weather Roundup
Issued by NWS

Home | Current Version | Previous Version | Graphics & Text | Print | Product List | Glossary On
Versions: 1 2 3 4 5 6 7 8 9 10 11 12 13 14 15 16 17 18 19 20 21 22 23 24 25 26 27 28 29 30 31 32 33 34 35 36 37 38 39 40 41 42 43 44 45 46 47 48 49 50
000
ASUS43 KIND 251259
RWRIN

WEATHER ROUNDUP FOR INDIANA
NATIONAL WEATHER SERVICE INDIANAPOLIS IN
900 AM EDT FRI JUL 25 2014

NOTE: "FAIR" INDICATES FEW OR NO CLOUDS BELOW 12,000 FEET WITH NO
SIGNIFICANT WEATHER AND/OR OBSTRUCTIONS TO VISIBILITY.

* - STATION DOES NOT REPORT WEATHER SUCH AS PRECIPITATION OR FOG.

+ - STATION NOT QUALITY CONTROLLED BY THE NATIONAL WEATHER SERVICE.
    USE DATA WITH CAUTION...ESPECIALLY DEWPOINT AND RELATIVE
    HUMIDITY OBSERVATIONS.

INZ001>003-010>013-019-020-251400-
NORTHWEST INDIANA

CITY           SKY/WX    TMP DP  RH WIND       PRES   REMARKS
KNOX *+        CLOUDY    58  54  85 SW5       30.11R
MONTICELLO +   CLOUDY    59  56  90 CALM      30.10R
RENSSELAER +   CLOUDY    59  57  94 CALM      30.12R
VALPARAISO     CLOUDY    57  53  86 SW6       30.12R

$$

LMZ046-743>745-251400-
SOUTHERN LAKE MICHIGAN

STATION/POSITION TIME  TEMP WIND        PRES
                       AIR  DIR/SP/G
                 (UTC) (F)  (DEG/KT/KT) (MB)
MICHIGAN CITY    1200   60  150/ 11/ 14   N/A

$$

INZ004-005-014>016-021>024-251400-
NORTH CENTRAL INDIANA

CITY           SKY/WX    TMP DP  RH WIND       PRES   REMARKS
GOSHEN         PTSUNNY   62  57  83 SW7       30.10R
SOUTH BEND     CLOUDY    62  53  72 W7        30.12R
WARSAW +       PTSUNNY   63  55  77 SW5       30.10R

$$

INZ006>009-017-018-025>027-251400-
NORTHEAST INDIANA

CITY           SKY/WX    TMP DP  RH WIND       PRES   REMARKS
ANGOLA *+      SUNNY     63  55  77 VRB3      30.09R
AUBURN +       MOSUNNY   63  52  67 CALM      30.10R
FORT WAYNE     PTSUNNY   62  54  74 SW6       30.11R

$$

INZ028-029-035-036-043>045-051>053-251400-
WEST CENTRAL INDIANA

CITY           SKY/WX    TMP DP  RH WIND       PRES   REMARKS
GREENCASTLE +  PTSUNNY   61  55  82 CALM      30.10R
LAFAYETTE      CLOUDY    59  55  87 CALM      30.10R
TERRE HAUTE    PTSUNNY   62  56  80 S3        30.10R

$$

INZ030>032-037>040-046>048-054>057-064-065-251400-
CENTRAL INDIANA

CITY           SKY/WX    TMP DP  RH WIND       PRES   REMARKS
ANDERSON       SUNNY     61  54  77 SE6       30.10
COLUMBUS       SUNNY     59  55  88 CALM      30.10F
INDIANAPOLIS   PTSUNNY   63  55  75 S5        30.09R
-EAGLE CREEK   PTSUNNY   62  55  77 CALM      30.10R
KOKOMO *+      PTSUNNY   63  57  82 SW7       30.12R
MT COMFORT *+  MOSUNNY   61  61 100 CALM      30.11R
SHELBYVILLE    MOSUNNY   62  56  80 S5        30.09S
ZIONSVILLE +   PTSUNNY   62  56  79 CALM      30.11R

$$

INZ033-034-041-042-049-050-058-059-251400-
EAST CENTRAL INDIANA

CITY           SKY/WX    TMP DP  RH WIND       PRES   REMARKS
MUNCIE         SUNNY     65  52  62 S3        30.10S

$$

INZ060-061-067>069-081>083-085>088-251400-
SOUTHWEST INDIANA

CITY           SKY/WX    TMP DP  RH WIND       PRES   REMARKS
EVANSVILLE     MOSUNNY   65  56  72 CALM      30.09R
HUNTINGBURG *+ MOSUNNY   64  57  77 S5        30.10R

$$

INZ062-063-066-070>080-084-089>092-251400-
SOUTH CENTRAL AND SOUTHEAST INDIANA

CITY           SKY/WX    TMP DP  RH WIND       PRES   REMARKS
BLOOMINGTON    MOSUNNY   65  55  70 SE7       30.10R

$$




USA.gov is the U.S. government's official web portal to all federal, state and local government web resources and services.